CDT,Max TemperatureF,Mean TemperatureF,Min TemperatureF,Max Dew PointF,MeanDew PointF,Min DewpointF,Max Humidity, Mean Humidity, Min Humidity, Max Sea Level PressureIn, Mean Sea Level PressureIn, Min Sea Level PressureIn, Max VisibilityMiles, Mean VisibilityMiles, Min VisibilityMiles, Max Wind SpeedMPH, Mean Wind SpeedMPH, Max Gust SpeedMPH,PrecipitationIn, CloudCover, Events, WindDirDegrees
2013-7-1,84,70,57,57,52,48,88,55,30,30.21,30.17,30.14,10,10,5,16,6,22,0.00,1,,358
2013-7-2,82,70,59,57,53,48,88,56,32,30.17,30.13,30.07,10,9,1,13,5,18,0.00,1,,3
2013-7-3,84,70,57,57,52,46,82,54,28,30.09,30.04,29.97,10,10,4,24,2,91,0.06,1,,107
2013-7-4,87,74,60,57,53,48,77,50,25,29.99,29.95,29.90,10,10,10,18,9,26,0.00,0,,188
2013-7-5,89,78,66,63,57,54,68,51,31,29.93,29.89,29.84,10,10,10,22,13,28,0.00,2,,179
2013-7-6,91,80,69,64,60,57,65,52,36,29.90,29.86,29.82,10,10,10,23,14,29,0.00,1,,174
2013-7-7,91,80,69,70,65,61,88,61,43,29.94,29.87,29.85,10,10,5,14,8,26,0.12,1,Thunderstorm,207
2013-7-8,89,78,68,70,67,61,88,70,38,30.01,29.97,29.91,10,9,2,8,3,,0.01,1,,53
2013-7-9,89,78,68,70,67,63,88,69,46,29.98,29.91,29.84,10,10,5,20,8,23,0.13,2,Thunderstorm,258
2013-7-10,80,70,60,64,56,54,83,62,39,30.11,30.07,29.99,10,10,5,15,10,21,0.00,0,,344
2013-7-11,84,70,57,59,54,50,88,56,30,30.14,30.08,30.01,10,10,5,16,5,22,0.00,0,,170
2013-7-12,87,76,66,61,57,54,68,52,35,30.03,29.99,29.93,10,10,10,25,15,31,0.00,1,,170
2013-7-13,78,72,66,64,60,57,83,68,57,30.08,30.00,29.94,10,10,7,21,15,32,0.39,2,Thunderstorm,153
2013-7-14,86,76,66,63,60,57,83,62,40,30.21,30.12,30.06,10,10,6,17,11,23,0.00,1,,154
2013-7-15,87,74,62,70,63,57,88,68,43,30.26,30.22,30.17,10,10,8,14,6,,0.00,1,,162
2013-7-16,91,80,69,70,67,64,88,64,41,30.26,30.23,30.20,10,10,8,12,7,,0.00,0,,203
2013-7-17,93,81,69,70,66,64,83,60,38,30.30,30.25,30.17,10,10,10,10,6,,0.00,0,,217
2013-7-18,91,82,73,68,66,64,78,59,41,30.16,30.02,29.86,10,10,9,20,9,25,0.00,0,,213
2013-7-19,82,74,64,66,62,57,78,58,42,29.95,29.89,29.79,10,10,10,18,10,28,0.09,1,Thunderstorm,301
2013-7-20,84,73,62,66,60,57,83,66,42,30.00,29.95,29.91,10,10,5,13,4,,0.00,1,,294
2013-7-21,84,73,62,66,62,55,94,72,37,29.95,29.88,29.81,10,10,8,9,3,,0.00,2,,145
2013-7-22,89,78,64,70,63,55,94,69,43,29.91,29.79,29.67,10,10,8,20,9,24,0.00,1,,248
2013-7-23,75,66,57,55,54,52,88,67,47,30.04,29.99,29.90,10,10,10,12,7,,0.00,1,,1
2013-7-24,80,66,53,57,53,48,88,63,39,30.10,30.06,30.02,10,10,9,12,3,,0.00,3,,288
2013-7-25,86,72,59,64,59,52,88,70,48,30.04,29.99,29.95,10,10,6,14,6,23,0.02,1,Thunderstorm,210
2013-7-26,71,62,53,61,52,46,94,68,49,30.12,30.04,29.95,10,10,2,22,10,29,0.00,4,,327
2013-7-27,69,58,48,46,43,39,87,59,37,30.12,30.06,29.99,10,10,10,17,9,24,0.00,5,,327
2013-7-28,73,60,46,50,45,43,87,61,38,30.08,30.04,30.01,10,10,10,12,7,16,0.00,1,,328
2013-7-29,77,62,46,54,48,43,93,60,36,30.14,30.10,30.08,10,10,3,16,4,20,0.00,2,,155
2013-7-30,73,68,62,63,59,54,94,77,64,30.12,30.10,30.08,10,10,2,9,4,,0.00,7,,153
2013-7-31,80,68,55,63,57,54,94,71,39,30.13,30.10,30.05,10,8,0,12,3,17,0.00,3,,318